IRIDIUM 173 (43925 NORAD) Tracking and Keplerian Element Data

This shows tracking and keplerian element data for the satellite.

Feedback or suggestion? Click here.




ElementValue
Catalog43925
NameIRIDIUM 173
Epoch Orbit134
Epoch Day20.88814959
Epoch Year2019
RAAN43.6924
Inclination86.4978
Eccentricity0.0001856
Argument of Perigee92.3065
Mean Anonmoly267.8354
Mean Motion14.52296369
Decay Rate-2.4E-07
L11 43925U 19002D 19020.88814959 -.00000024 00000-0 -11112-4 0 9997
L22 43925 86.4978 43.6924 0001856 92.3065 267.8354 14.52296369 1340

Live tracking and technical data element details for IRIDIUM 173 (NORAD 43925). IRIDIUM 173 can be tracked NOW for your location showing map with azimuth and elevation plus other details from your city location.

Track the satellite on the map from your city or location and see movement details for azimuth, elevation, latitude, longitude, range, height, and movement on the map or in text.







IsCatalogInMostPopularTable: catalog: 43925, numindb: 2
Update: records affected: 1



GetName: 43925 IRIDIUM 173

Hit Count: updated at: Wed, 23 Jan 2019 03:10:36 GMT